GW1035 Weather Reports


time (UTC)temp
C
wind
direction
speed
KPH
gust
KPH
rain 1hr
cm
rain 24hr
cm
rain mn
cm
humidity
%
barometer
mb
20260508033535 7 293 0.0 1.6 0.00 0.15 0.15 53 1007.7
20260508033048 8 328 0.0 1.6 0.00 0.15 0.15 52 1007.9
20260508032538 8 0 0.0 1.6 0.00 0.15 0.15 51 1007.8
20260508032040 8 0 0.0 1.6 0.00 0.15 0.15 50 1007.8
20260508031545 8 0 0.0 1.6 0.00 0.15 0.15 51 1007.7
20260508031039 8 352 0.0 1.6 0.00 0.15 0.15 50 1007.7
20260508030537 8 8 0.0 3.2 0.00 0.15 0.15 52 1007.8
20260508030054 8 0 0.0 3.2 0.00 0.15 0.15 51 1007.8
20260508025537 8 294 0.0 3.2 0.00 0.15 0.15 51 1007.7
20260508025039 8 0 0.0 3.2 0.00 0.15 0.15 49 1007.7
20260508024547 8 24 0.0 1.6 0.00 0.15 0.15 48 1007.7
20260508024038 8 0 0.0 1.6 0.00 0.15 0.15 48 1007.8
20260508023538 8 0 0.0 1.6 0.00 0.15 0.15 48 1007.7
20260508023053 9 0 0.0 4.8 0.00 0.15 0.15 47 1007.6
20260508022535 9 0 0.0 4.8 0.00 0.15 0.15 47 1007.5
20260508022036 9 39 0.0 9.7 0.00 0.15 0.15 46 1007.4
20260508021550 10 0 0.0 9.7 0.00 0.15 0.15 45 1007.3
20260508021035 10 19 3.2 9.7 0.00 0.15 0.15 45 1007.3
20260508020542 10 27 1.6 8.0 0.00 0.15 0.15 45 1007.2
20260508020056 10 330 1.6 8.0 0.00 0.15 0.15 45 1007.3
20260508015539 10 319 1.6 12.9 0.00 0.20 0.15 44 1007.3
20260508015039 10 13 1.6 12.9 0.00 0.20 0.15 43 1007.1
20260508014545 10 65 3.2 12.9 0.00 0.20 0.15 43 1007.2
20260508014040 10 41 3.2 9.7 0.00 0.20 0.15 43 1007.2
20260508013537 10 347 3.2 8.0 0.00 0.20 0.15 42 1006.9
20260508013050 10 347 3.2 8.0 0.00 0.20 0.15 43 1006.9
20260508012537 10 0 1.6 4.8 0.00 0.20 0.15 42 1006.9
20260508012038 11 32 0.0 9.7 0.00 0.20 0.15 41 1006.8
20260508011547 11 319 1.6 9.7 0.00 0.20 0.15 41 1006.7
20260508011039 11 357 1.6 8.0 0.00 0.20 0.15 41 1006.7
20260508010536 11 0 0.0 6.4 0.00 0.20 0.15 41 1006.6
20260508010045 11 0 1.6 6.4 0.00 0.20 0.15 40 1006.6
20260508005539 11 44 1.6 8.0 0.00 0.23 0.15 41 1006.5
20260508005040 11 345 1.6 8.0 0.00 0.23 0.15 41 1006.4
20260508004555 11 22 1.6 8.0 0.00 0.23 0.15 42 1006.3
20260508004038 11 0 0.0 0.0 0.00 0.23 0.15 42 1006.2
20260508003542 11 0 0.0 1.6 0.00 0.23 0.15 41 1006.1
20260508003050 11 0 0.0 4.8 0.00 0.23 0.15 40 1005.9
20260508002537 11 0 0.0 4.8 0.00 0.23 0.15 39 1005.8
20260508002037 11 0 0.0 4.8 0.00 0.23 0.15 39 1005.7
20260508001547 12 8 0.0 4.8 0.00 0.23 0.15 38 1005.7
20260508001038 12 18 0.0 6.4 0.00 0.23 0.15 37 1005.6
20260508000540 12 14 0.0 6.4 0.00 0.23 0.15 37 1005.5
20260508000057 12 301 0.0 3.2 0.00 0.23 0.15 37 1005.5
20260507235539 12 304 0.0 6.4 0.00 0.23 0.15 37 1005.4
20260507235042 12 22 1.6 6.4 0.00 0.23 0.15 37 1005.4
20260507234555 13 329 0.0 4.8 0.00 0.23 0.15 36 1005.4
20260507234041 13 59 1.6 8.0 0.00 0.23 0.15 37 1005.4
20260507233538 13 58 1.6 8.0 0.00 0.23 0.15 37 1005.4
20260507233109 13 23 1.6 6.4 0.00 0.23 0.15 38 1005.3
20260507232538 13 298 0.0 3.2 0.00 0.23 0.15 38 1005.1
20260507232039 14 318 1.6 3.2 0.00 0.23 0.15 36 1005.2
20260507231553 14 329 0.0 3.2 0.00 0.23 0.15 36 1005.1
20260507231038 14 12 0.0 3.2 0.00 0.23 0.15 36 1005.1
20260507230538 15 44 1.6 4.8 0.00 0.23 0.15 36 1005.0
20260507230052 15 8 0.0 6.4 0.00 0.23 0.15 35 1004.9
20260507225538 15 56 3.2 6.4 0.00 0.25 0.15 35 1004.8
20260507225039 15 20 1.6 11.3 0.00 0.25 0.15 33 1004.6
20260507224549 15 360 1.6 11.3 0.00 0.25 0.15 33 1004.6
20260507224039 16 20 1.6 11.3 0.00 0.25 0.15 33 1004.7
20260507223540 16 252 3.2 11.3 0.00 0.25 0.15 33 1004.6
20260507223059 16 333 3.2 11.3 0.00 0.25 0.15 33 1004.5
20260507222539 16 302 1.6 6.4 0.00 0.25 0.15 33 1004.5
20260507222038 16 210 3.2 11.3 0.00 0.25 0.15 31 1004.3
20260507221549 16 341 3.2 11.3 0.00 0.25 0.15 32 1004.4
20260507221037 16 319 4.8 11.3 0.00 0.25 0.15 31 1004.4
20260507220538 15 346 3.2 9.7 0.00 0.25 0.15 33 1004.4
20260507220045 15 46 4.8 9.7 0.00 0.25 0.15 32 1004.3
20260507215538 16 29 1.6 12.9 0.00 0.38 0.15 31 1004.3
20260507215039 16 296 4.8 12.9 0.00 0.38 0.15 30 1004.3
20260507214550 16 211 6.4 11.3 0.00 0.38 0.15 31 1004.4
20260507214042 16 217 4.8 17.7 0.00 0.38 0.15 30 1004.3
20260507213542 17 309 4.8 17.7 0.00 0.38 0.15 30 1004.4
20260507213051 16 281 6.4 14.5 0.00 0.38 0.15 31 1004.4
20260507212544 16 319 4.8 14.5 0.00 0.38 0.15 32 1004.3
20260507212041 17 48 3.2 8.0 0.00 0.38 0.15 31 1004.4
20260507211601 16 26 1.6 8.0 0.00 0.38 0.15 31 1004.2
20260507211037 16 281 1.6 14.5 0.00 0.38 0.15 32 1004.3
20260507210539 16 318 4.8 14.5 0.00 0.38 0.15 30 1004.3
20260507210113 17 266 3.2 16.1 0.00 0.38 0.15 34 1004.2
20260507205541 16 271 1.6 16.1 0.00 0.61 0.15 34 1004.0
20260507205038 16 43 3.2 14.5 0.00 0.61 0.15 33 1004.0
20260507204551 16 0 3.2 14.5 0.00 0.61 0.15 35 1004.0
20260507204038 16 7 4.8 14.5 0.00 0.61 0.15 34 1004.1
20260507203538 17 342 3.2 14.5 0.00 0.61 0.15 30 1004.0
20260507203053 17 307 4.8 14.5 0.00 0.61 0.15 30 1004.1
20260507202537 17 271 4.8 12.9 0.00 0.61 0.15 33 1004.0
20260507202038 17 37 3.2 14.5 0.00 0.61 0.15 32 1004.0
20260507201546 17 341 3.2 14.5 0.00 0.61 0.15 31 1004.0
20260507201039 17 262 6.4 14.5 0.00 0.61 0.15 33 1004.0
20260507200541 16 284 3.2 9.7 0.00 0.61 0.15 33 1004.0
20260507200053 16 288 3.2 11.3 0.00 0.61 0.15 35 1004.0
20260507195543 16 73 4.8 11.3 0.00 0.91 0.15 34 1004.2
20260507195041 16 39 4.8 12.9 0.00 0.91 0.15 34 1004.2
20260507194553 17 67 3.2 20.9 0.00 0.91 0.15 33 1004.1
20260507194039 16 304 6.4 20.9 0.00 0.91 0.15 36 1004.2
20260507193542 16 279 8.0 20.9 0.00 0.91 0.15 33 1004.1
20260507193048 17 293 4.8 11.3 0.00 0.91 0.15 35 1004.2
20260507192537 17 45 4.8 16.1 0.00 0.91 0.15 36 1004.3
20260507192038 16 40 4.8 16.1 0.00 0.91 0.15 35 1004.3
20260507191549 16 54 6.4 20.9 0.00 0.91 0.15 35 1004.4
20260507191037 17 300 6.4 20.9 0.00 0.91 0.15 37 1004.4
20260507190538 16 288 4.8 14.5 0.00 0.91 0.15 40 1004.4
20260507190053 16 330 3.2 12.9 0.00 0.91 0.15 36 1004.3
20260507185537 16 319 4.8 19.3 0.00 1.02 0.15 37 1004.3
20260507185037 17 25 4.8 19.3 0.00 1.02 0.15 36 1004.3
20260507184547 16 29 8.0 22.5 0.00 1.02 0.15 35 1004.4
20260507184042 16 350 6.4 22.5 0.00 1.02 0.15 36 1004.5
20260507183537 16 285 4.8 16.1 0.00 1.02 0.15 38 1004.5
20260507183107 16 244 6.4 16.1 0.00 1.02 0.15 36 1004.4
20260507182538 16 309 6.4 16.1 0.00 1.02 0.15 39 1004.6
20260507182039 16 262 3.2 14.5 0.00 1.02 0.15 40 1004.4
20260507181558 16 303 4.8 14.5 0.00 1.02 0.15 43 1004.5
20260507181038 16 322 4.8 14.5 0.00 1.02 0.15 45 1004.6
20260507180536 16 1 4.8 12.9 0.00 1.02 0.15 43 1004.4
20260507180053 16 302 4.8 16.1 0.00 1.02 0.15 40 1004.4
20260507175538 16 239 4.8 16.1 0.00 1.02 0.15 41 1004.4
20260507175038 16 310 6.4 16.1 0.00 1.02 0.15 39 1004.6
20260507174556 16 250 3.2 14.5 0.00 1.02 0.15 48 1004.5
20260507174042 15 240 4.8 14.5 0.00 1.02 0.15 45 1004.7
20260507173537 15 275 3.2 14.5 0.00 1.02 0.15 46 1004.7
20260507173049 15 292 4.8 17.7 0.00 1.02 0.15 46 1004.8
20260507172536 16 356 6.4 17.7 0.00 1.02 0.15 46 1005.0
20260507172038 16 302 4.8 11.3 0.00 1.02 0.15 46 1005.0
20260507171553 16 290 4.8 19.3 0.00 1.02 0.15 45 1004.9
20260507171037 16 338 8.0 19.3 0.00 1.02 0.15 46 1004.9
20260507170538 16 321 4.8 11.3 0.00 1.02 0.15 47 1005.0
20260507170054 16 290 4.8 11.3 0.00 1.02 0.15 49 1005.0
20260507165539 16 231 4.8 11.3 0.00 1.02 0.15 50 1005.0
20260507165039 15 221 3.2 16.1 0.00 1.02 0.15 50 1005.1
20260507164622 15 303 6.4 16.1 0.00 1.02 0.15 50 1005.2
20260507164039 15 300 6.4 16.1 0.00 1.02 0.15 50 1005.2
20260507163541 15 289 4.8 14.5 0.00 1.02 0.15 52 1005.1
20260507163059 15 5 3.2 11.3 0.00 1.02 0.15 54 1005.2
20260507162538 16 353 3.2 16.1 0.00 1.02 0.15 51 1005.3
20260507162040 16 268 4.8 16.1 0.00 1.02 0.15 54 1005.2
20260507161559 16 293 4.8 16.1 0.00 1.02 0.15 52 1005.3
20260507161042 16 11 4.8 9.7 0.00 1.02 0.15 51 1005.3
20260507160541 16 300 3.2 9.7 0.00 1.02 0.15 53 1005.4
20260507160048 15 312 3.2 6.4 0.00 1.02 0.15 52 1005.5
20260507155539 15 0 1.6 9.7 0.00 1.02 0.15 53 1005.6
20260507155040 15 255 4.8 9.7 0.00 1.02 0.15 52 1005.7
20260507154556 15 289 0.0 6.4 0.00 1.02 0.15 56 1005.8
20260507154040 14 328 1.6 6.4 0.00 1.02 0.15 56 1005.8
20260507153542 14 335 1.6 6.4 0.00 1.02 0.15 54 1005.8
20260507153055 15 331 1.6 6.4 0.00 1.02 0.15 57 1006.0
20260507152541 15 292 1.6 9.7 0.00 1.02 0.15 53 1005.8
20260507152041 15 203 1.6 11.3 0.00 1.02 0.15 53 1005.8
20260507151549 15 18 3.2 11.3 0.00 1.02 0.15 54 1005.9
20260507151042 15 350 3.2 9.7 0.00 1.02 0.15 55 1006.1
20260507150539 15 217 0.0 8.0 0.00 1.02 0.15 55 1006.0
20260507150052 15 209 3.2 8.0 0.00 1.02 0.15 54 1006.0
20260507145538 15 49 1.6 8.0 0.00 1.02 0.15 57 1006.0
20260507145038 15 287 1.6 4.8 0.00 1.02 0.15 58 1006.1
20260507144549 14 187 0.0 4.8 0.00 1.02 0.15 57 1006.1
20260507144039 14 257 1.6 6.4 0.00 1.02 0.15 57 1006.1
20260507143539 14 271 1.6 6.4 0.00 1.02 0.15 59 1006.1
20260507143047 14 295 1.6 6.4 0.00 1.02 0.15 58 1006.1
20260507142540 13 4 1.6 11.3 0.00 1.02 0.15 61 1006.1
20260507142040 13 332 1.6 11.3 0.00 1.02 0.15 64 1006.2
20260507141556 13 305 1.6 6.4 0.00 1.02 0.15 63 1006.3
20260507141040 13 244 1.6 8.0 0.00 1.02 0.15 67 1006.4
20260507140540 13 291 1.6 8.0 0.00 1.02 0.15 67 1006.4
20260507140052 13 304 0.0 6.4 0.00 1.02 0.15 68 1006.4
20260507135537 13 0 1.6 6.4 0.00 1.02 0.15 68 1006.5
20260507135038 13 250 3.2 6.4 0.00 1.02 0.15 69 1006.5
20260507134550 12 224 1.6 9.7 0.00 1.02 0.15 70 1006.5
20260507134038 12 247 1.6 9.7 0.00 1.02 0.15 70 1006.5
20260507133538 12 307 3.2 8.0 0.00 1.02 0.15 71 1006.6
20260507133053 12 304 1.6 6.4 0.00 1.02 0.15 69 1006.6
20260507132537 12 33 1.6 6.4 0.00 1.02 0.15 69 1006.7
20260507132037 12 219 3.2 6.4 0.00 1.02 0.15 70 1006.7
20260507131553 12 243 1.6 4.8 0.00 1.02 0.15 70 1006.7
20260507131038 11 0 1.6 4.8 0.00 1.02 0.15 71 1006.6
20260507130543 11 32 0.0 6.4 0.00 1.02 0.15 71 1006.6
20260507130051 11 300 0.0 6.4 0.00 1.02 0.15 74 1006.6
20260507125538 11 314 1.6 6.4 0.00 1.02 0.15 72 1006.7
20260507125037 11 7 0.0 6.4 0.00 1.02 0.15 72 1006.8
20260507124602 11 45 0.0 6.4 0.00 1.02 0.15 73 1006.8
20260507124039 11 34 1.6 6.4 0.00 1.02 0.15 72 1006.8
20260507123539 10 338 1.6 9.7 0.00 1.02 0.15 73 1006.8
20260507123051 10 306 1.6 9.7 0.00 1.02 0.15 74 1006.9
20260507122538 10 309 1.6 9.7 0.00 1.02 0.15 76 1006.8
20260507122040 10 285 1.6 6.4 0.00 1.02 0.15 76 1006.8
20260507121552 10 51 0.0 8.0 0.00 1.02 0.15 79 1006.8
20260507121038 10 300 1.6 8.0 0.00 1.02 0.15 79 1006.7
20260507120538 10 311 1.6 6.4 0.00 1.02 0.15 79 1006.8
20260507120052 9 290 1.6 3.2 0.00 1.02 0.15 81 1006.8
20260507115538 9 0 0.0 4.8 0.00 1.02 0.15 81 1006.9
20260507115041 8 290 1.6 6.4 0.00 1.02 0.15 82 1006.9
20260507114603 8 246 1.6 6.4 0.00 1.02 0.15 84 1007.0
20260507114038 8 340 1.6 6.4 0.00 1.02 0.15 85 1006.9
20260507113538 8 347 1.6 6.4 0.00 1.02 0.15 87 1006.9
20260507113121 7 10 0.0 3.2 0.00 1.02 0.15 89 1006.7
20260507112541 7 306 0.0 3.2 0.00 1.02 0.15 88 1006.7
20260507112040 7 0 0.0 3.2 0.00 1.02 0.15 89 1006.8
20260507111556 8 3 1.6 3.2 0.00 1.02 0.15 89 1006.9
20260507111038 8 300 0.0 3.2 0.00 1.02 0.15 90 1007.0
20260507110539 7 290 0.0 3.2 0.00 1.02 0.15 90 1007.1
20260507110047 7 308 0.0 1.6 0.00 1.02 0.15 90 1007.1
20260507105538 7 291 0.0 1.6 0.00 1.02 0.15 90 1007.2
20260507105039 7 293 0.0 1.6 0.00 1.02 0.15 90 1006.6
20260507104550 7 0 0.0 1.6 0.00 1.02 0.15 90 1006.8
20260507104037 7 0 0.0 1.6 0.00 1.02 0.15 90 1007.2
20260507103537 7 0 0.0 1.6 0.00 1.02 0.15 89 1007.3
20260507103052 7 0 0.0 1.6 0.00 1.02 0.15 88 1006.8
20260507102541 7 0 0.0 1.6 0.00 1.02 0.15 88 1007.0
20260507102038 7 0 0.0 3.2 0.00 1.02 0.15 87 1006.9
20260507101548 7 293 0.0 3.2 0.00 1.02 0.15 88 1007.3
20260507101037 7 29 0.0 3.2 0.00 1.02 0.15 87 1006.6
20260507100538 7 30 0.0 3.2 0.00 1.02 0.15 88 1007.0
20260507100057 7 0 0.0 3.2 0.00 1.02 0.15 88 1006.8
20260507095539 7 0 0.0 3.2 0.00 1.02 0.15 88 1006.9
20260507095038 7 295 0.0 1.6 0.00 1.02 0.15 88 1007.0
20260507094547 7 319 0.0 1.6 0.00 1.02 0.15 87 1006.7
20260507094038 7 38 0.0 6.4 0.00 1.02 0.15 86 1006.7
20260507093537 7 38 1.6 6.4 0.00 1.02 0.15 86 1006.4
20260507093052 7 33 0.0 4.8 0.00 1.02 0.15 86 1006.4
20260507092538 7 307 0.0 6.4 0.00 1.02 0.15 86 1006.7
20260507092042 7 343 1.6 6.4 0.00 1.02 0.15 86 1006.0
20260507091605 7 358 0.0 4.8 0.00 1.02 0.15 86 1006.1
20260507091038 8 340 1.6 8.0 0.00 1.02 0.15 86 1005.9
20260507090538 8 0 1.6 8.0 0.00 1.02 0.15 86 1006.1
20260507090048 8 44 3.2 8.0 0.00 1.02 0.15 86 1006.4
20260507085539 8 11 1.6 8.0 0.00 1.02 0.15 86 1006.6
20260507085038 8 8 1.6 11.3 0.00 1.02 0.15 86 1006.4
20260507084553 8 302 1.6 11.3 0.00 1.02 0.15 86 1006.5
20260507084037 8 44 1.6 11.3 0.00 1.02 0.15 86 1006.5
20260507083538 8 340 1.6 9.7 0.00 1.02 0.15 87 1006.9
20260507083047 8 351 3.2 9.7 0.00 1.02 0.15 87 1006.7
20260507082538 8 347 1.6 11.3 0.00 1.02 0.15 88 1006.6
20260507082037 8 352 3.2 11.3 0.00 1.02 0.15 89 1006.2
20260507081556 8 31 3.2 11.3 0.00 1.02 0.15 90 1005.8
20260507081037 8 30 0.0 4.8 0.00 1.02 0.15 90 1005.9
20260507080540 8 356 1.6 4.8 0.00 1.02 0.15 90 1006.2
20260507080051 8 329 1.6 4.8 0.00 1.02 0.15 90 1006.5
20260507075538 8 0 0.0 4.8 0.00 1.02 0.15 90 1006.4
20260507075042 8 4 0.0 6.4 0.00 1.02 0.15 90 1006.1
20260507074556 8 336 1.6 6.4 0.00 1.02 0.15 90 1006.1
20260507074041 8 301 1.6 8.0 0.00 1.02 0.15 91 1006.1
20260507073538 8 3 3.2 8.0 0.00 1.02 0.15 91 1005.8
20260507073053 8 345 3.2 6.4 0.00 1.02 0.15 91 1006.1
20260507072538 8 17 1.6 6.4 0.00 1.02 0.15 92 1005.9
20260507072038 8 13 1.6 4.8 0.00 1.02 0.15 92 1005.9
20260507071552 8 27 1.6 4.8 0.00 1.02 0.15 92 1005.8
20260507071038 8 7 0.0 3.2 0.00 1.02 0.15 92 1005.8
20260507070538 8 2 1.6 3.2 0.00 1.02 0.15 92 1005.8
20260507070059 9 293 0.0 4.8 0.00 1.02 0.15 93 1005.9
20260507065540 9 302 0.0 4.8 0.00 1.02 0.15 93 1005.7
20260507065037 9 298 0.0 1.6 0.00 1.02 0.15 93 1005.7
20260507064552 9 294 0.0 1.6 0.00 1.02 0.15 93 1005.7
20260507064040 9 302 0.0 1.6 0.00 1.02 0.15 93 1005.7
20260507063539 9 0 0.0 1.6 0.00 1.02 0.15 93 1005.5
20260507063053 9 302 0.0 1.6 0.00 1.02 0.15 93 1005.5
20260507062538 9 0 0.0 1.6 0.00 1.02 0.15 93 1005.4
20260507062038 9 0 0.0 1.6 0.00 1.02 0.15 93 1005.5
20260507061552 9 330 0.0 1.6 0.00 1.02 0.15 93 1005.5
20260507061041 9 0 0.0 1.6 0.00 1.02 0.15 92 1005.5
20260507060538 9 0 0.0 1.6 0.00 1.02 0.15 92 1005.1
20260507060100 9 0 0.0 6.4 0.00 1.02 0.15 92 1005.3
20260507055538 9 12 1.6 6.4 0.00 1.02 0.15 92 1005.3
20260507055039 9 18 0.0 4.8 0.00 1.02 0.15 92 1005.4
20260507054549 10 290 1.6 3.2 0.00 1.02 0.15 92 1005.3
20260507054040 10 20 0.0 6.4 0.00 1.02 0.15 92 1005.5
20260507053538 10 5 1.6 6.4 0.03 1.02 0.15 92 1005.3
20260507053053 10 49 0.0 6.4 0.03 1.02 0.15 92 1005.0
20260507052544 10 27 1.6 6.4 0.03 1.02 0.15 93 1005.4
20260507052038 10 26 1.6 6.4 0.03 1.02 0.15 93 1005.4
20260507051552 10 353 1.6 4.8 0.03 1.02 0.15 93 1005.4
20260507051037 10 0 1.6 11.3 0.08 1.02 0.15 93 1005.1
20260507050537 10 27 1.6 12.9 0.10 1.02 0.15 93 1005.0
20260507050052 10 358 3.2 12.9 0.15 1.02 0.15 93 1005.0
20260507045540 10 64 4.8 24.1 0.15 1.02 0.15 93 1005.1
20260507045037 11 328 3.2 24.1 0.15 1.02 0.15 93 1004.9
20260507044555 11 2 4.8 24.1 0.15 1.02 0.15 93 1004.8
20260507044037 12 37 4.8 12.9 0.15 1.02 0.15 94 1004.6
20260507043538 12 0 0.0 4.8 0.13 0.99 0.13 96 1004.4
20260507043101 12 11 0.0 4.8 0.13 0.99 0.13 96 1004.5
20260507042536 12 0 0.0 1.6 0.13 0.99 0.13 96 1004.5
20260507042044 12 0 0.0 1.6 0.13 0.99 0.13 96 1004.4
20260507041556 12 263 0.0 1.6 0.13 0.99 0.13 96 1004.4
20260507041039 12 0 0.0 1.6 0.08 0.94 0.08 95 1004.4
20260507040539 12 0 0.0 1.6 0.05 0.91 0.05 95 1004.3
20260507040047 12 0 0.0 1.6 0.00 0.86 0.00 95 1004.5
20260507035539 12 249 0.0 1.6 0.00 0.86 0.86 95 1004.5
20260507035040 12 249 0.0 1.6 0.00 0.86 0.86 96 1004.4
20260507034554 12 173 0.0 1.6 0.00 0.86 0.86 95 1004.3
20260507034038 12 173 0.0 1.6 0.00 0.86 0.86 95 1004.2